Weather History for KCBK - November, 2013

Change the Weather History Date:

Monday, November 4, 2013

  Actual Average (KGLD) Record (KGLD)
Temperature  
Mean Temperature 42 °F 44 °F  
Max Temperature 51 °F 58 °F 79 °F (1999)
Min Temperature 32 °F 31 °F 10 °F (1967)
Degree Days  
Heating Degree Days 24 21  
Month to date heating degree days 80  
Since 1 July heating degree days 620  
Cooling Degree Days 0 0  
Month to date cooling degree days 0  
Year to date cooling degree days 941  
Moisture  
Dew Point 34 °F    
Average Humidity 78    
Maximum Humidity 100    
Minimum Humidity 47    
Precipitation  
Precipitation 0.00 in 0.04 in 0.40 in (1946)
Month to date precipitation 0.13  
Year to date precipitation 18.62  
Snow  
Snow 0.00 in 0.10 in - ()
Month to date snowfall 0.5  
Since 1 July snowfall 3.1  
Since 1 September snowfall 3.1  
Snow Depth -    
Sea Level Pressure  
Sea Level Pressure 29.97 in    
Wind  
Wind Speed 14 mph (NNE)    
Max Wind Speed 25 mph    
Max Gust Speed 36 mph    
Visibility 10 miles    
Events      
T = Trace of Precipitation, MM = Missing Value Source: NWS Daily Summary

Daily Weather History Graph

Daily Weather History Graph

Search for Another Location

Airport or City:

Trip Planner

Search our weather history database for the weather conditions in past years. The results will help you decide how hot, cold, wet, or windy it might be!

Date:

Astronomy

Nov. 04, 2013 Rise Set
Actual Time 7:15 AM CST 5:39 PM CST
Civil Twilight 6:47 AM CST 6:07 PM CST
Nautical Twilight 6:16 AM CST 6:38 PM CST
Astronomical Twilight 5:44 AM CST 7:10 PM CST
Moon 8:28 AM CST (11/4) 6:45 PM CST (11/4)
Length of Visible Light 11h 19m
Length of Day
10h 23m
New Moon, 2% of the Moon is Illuminated
Nov 4
New Moon
Nov 9
First Quarter
Nov 17
Full
Nov 25
Last Quarter
Dec 2
New

Hourly Weather History & Observations

Time (CST) Temp. Windchill Dew Point Humidity Pressure Visibility Wind Dir Wind Speed Gust Speed Precip Events Conditions
12:15 AM 39.2 °F 31.6 °F 33.8 °F 81% 29.64 in 10.0 mi NNW 12.7 mph - N/A   Clear
12:55 AM 39.2 °F 30.2 °F 33.8 °F 81% 29.67 in 10.0 mi NNW 17.3 mph - N/A   Clear
1:15 AM 41.0 °F 30.7 °F 33.8 °F 76% 29.68 in 10.0 mi NNW 25.3 mph 33.4 mph N/A   Clear
1:35 AM 41.0 °F 31.1 °F 35.6 °F 81% 29.70 in 10.0 mi NW 23.0 mph 31.1 mph N/A   Clear
1:55 AM 41.0 °F 30.9 °F 35.6 °F 81% 29.73 in 10.0 mi NW 24.2 mph 28.8 mph N/A   Clear
2:15 AM 41.0 °F 31.9 °F 37.4 °F 87% 29.76 in 10.0 mi NW 19.6 mph 27.6 mph N/A   Clear
2:35 AM 41.0 °F 30.9 °F 37.4 °F 87% 29.76 in 10.0 mi NNW 24.2 mph 29.9 mph N/A   Clear
2:55 AM 41.0 °F 31.9 °F 37.4 °F 87% 29.77 in 10.0 mi NW 19.6 mph 28.8 mph N/A   Clear
3:15 AM 41.0 °F 31.6 °F 37.4 °F 87% 29.79 in 10.0 mi NW 20.7 mph 28.8 mph N/A   Clear
3:35 AM 41.0 °F 31.4 °F 37.4 °F 87% 29.81 in 10.0 mi NW 21.9 mph 27.6 mph N/A   Clear
3:55 AM 41.0 °F 32.5 °F 35.6 °F 81% 29.83 in 10.0 mi NW 17.3 mph 26.5 mph N/A   Scattered Clouds
4:15 AM 41.0 °F 31.6 °F 37.4 °F 87% 29.84 in 10.0 mi NW 20.7 mph 27.6 mph N/A   Overcast
4:35 AM 41.0 °F 30.9 °F 35.6 °F 81% 29.84 in 10.0 mi NNW 24.2 mph 35.7 mph N/A   Scattered Clouds
4:55 AM 39.2 °F 29.6 °F 35.6 °F 87% 29.87 in 10.0 mi NW 19.6 mph 29.9 mph N/A   Scattered Clouds
5:15 AM 37.4 °F 28.2 °F 35.6 °F 93% 29.87 in 10.0 mi NNW 16.1 mph 24.2 mph N/A   Scattered Clouds
5:35 AM 37.4 °F 27.8 °F 35.6 °F 93% 29.89 in 10.0 mi NNW 17.3 mph 21.9 mph N/A   Clear
5:55 AM 35.6 °F 27.1 °F 35.6 °F 100% 29.91 in 10.0 mi NNW 12.7 mph - N/A   Clear
6:15 AM 35.6 °F 28.0 °F 33.8 °F 93% 29.92 in 10.0 mi NW 10.4 mph - N/A   Clear
6:35 AM 33.8 °F 27.0 °F 33.8 °F 100% 29.92 in 10.0 mi NW 8.1 mph - N/A   Clear
6:55 AM 33.8 °F 26.4 °F 33.8 °F 100% 29.93 in 10.0 mi WNW 9.2 mph - N/A   Clear
7:15 AM 32.0 °F 23.0 °F 32.0 °F 100% 29.95 in 10.0 mi WNW 11.5 mph - N/A   Clear
7:35 AM 33.8 °F 25.3 °F 33.8 °F 100% 29.96 in 10.0 mi WNW 11.5 mph - N/A   Clear
7:55 AM 33.8 °F 25.8 °F 33.8 °F 100% 29.98 in 10.0 mi NW 10.4 mph - N/A   Clear
8:15 AM 35.6 °F 27.5 °F 33.8 °F 93% 29.99 in 10.0 mi NW 11.5 mph - N/A   Clear
8:35 AM 37.4 °F 30.3 °F 35.6 °F 93% 30.01 in 10.0 mi NW 10.4 mph - N/A   Clear
8:55 AM 41.0 °F 33.1 °F 35.6 °F 81% 30.03 in 10.0 mi NW 15.0 mph 21.9 mph N/A   Clear
9:15 AM 41.0 °F 33.5 °F 37.4 °F 87% 30.03 in 10.0 mi NNW 13.8 mph - N/A   Clear
9:35 AM 42.8 °F 35.8 °F 37.4 °F 81% 30.04 in 10.0 mi North 13.8 mph 18.4 mph N/A   Clear
9:55 AM 44.6 °F 37.4 °F 37.4 °F 76% 30.05 in 10.0 mi North 16.1 mph 24.2 mph N/A   Scattered Clouds
10:15 AM 44.6 °F 37.8 °F 37.4 °F 76% 30.05 in 10.0 mi North 15.0 mph 19.6 mph N/A   Mostly Cloudy
10:35 AM 44.6 °F 37.8 °F 37.4 °F 76% 30.05 in 10.0 mi North 15.0 mph 18.4 mph N/A   Scattered Clouds
10:55 AM 44.6 °F 37.4 °F 35.6 °F 71% 30.05 in 10.0 mi North 16.1 mph 21.9 mph N/A   Mostly Cloudy
11:15 AM 44.6 °F 37.4 °F 37.4 °F 76% 30.05 in 10.0 mi North 16.1 mph 20.7 mph N/A   Mostly Cloudy
11:35 AM 46.4 °F 40.7 °F 35.6 °F 66% 30.05 in 10.0 mi North 12.7 mph 18.4 mph N/A   Scattered Clouds
11:55 AM 46.4 °F 40.4 °F 35.6 °F 66% 30.04 in 10.0 mi North 13.8 mph - N/A   Scattered Clouds
12:15 PM 48.2 °F - 35.6 °F 62% 30.03 in 10.0 mi North 13.8 mph 20.7 mph N/A   Scattered Clouds
12:35 PM 50.0 °F - 35.6 °F 58% 30.02 in 10.0 mi North 13.8 mph 18.4 mph N/A   Clear
12:55 PM 50.0 °F - 33.8 °F 54% 30.03 in 10.0 mi North 6.9 mph 11.5 mph N/A   Clear
1:15 PM 50.0 °F - 33.8 °F 54% 30.02 in 10.0 mi NNE 11.5 mph 16.1 mph N/A   Clear
1:35 PM 50.0 °F - 33.8 °F 54% 30.02 in 10.0 mi NNE 8.1 mph - N/A   Clear
1:55 PM 50.0 °F - 32.0 °F 50% 30.01 in 10.0 mi NE 5.8 mph - N/A   Clear
2:15 PM 50.0 °F - 32.0 °F 50% 30.01 in 10.0 mi NNE 10.4 mph - N/A   Clear
2:35 PM 51.8 °F - 32.0 °F 47% 30.01 in 10.0 mi NE 9.2 mph - N/A   Clear
2:55 PM 51.8 °F - 32.0 °F 47% 30.02 in 10.0 mi ENE 5.8 mph - N/A   Clear
3:15 PM 51.8 °F - 32.0 °F 47% 30.01 in 10.0 mi East 5.8 mph - N/A   Clear
3:35 PM 51.8 °F - 32.0 °F 47% 30.01 in 10.0 mi ENE 5.8 mph - N/A   Clear
3:55 PM 50.0 °F - 32.0 °F 50% 30.02 in 10.0 mi East 3.5 mph - N/A   Clear
4:15 PM 50.0 °F - 32.0 °F 50% 30.02 in 10.0 mi East 4.6 mph - N/A   Clear
4:35 PM 50.0 °F - 32.0 °F 50% 30.02 in 10.0 mi East 8.1 mph - N/A   Clear
4:55 PM 50.0 °F - 32.0 °F 50% 30.03 in 10.0 mi ESE 6.9 mph - N/A   Clear
5:15 PM 46.4 °F 43.5 °F 32.0 °F 57% 30.03 in 10.0 mi East 5.8 mph - N/A   Clear
5:35 PM 44.6 °F 41.4 °F 32.0 °F 61% 30.03 in 10.0 mi East 5.8 mph - N/A   Clear
5:55 PM 42.8 °F 38.6 °F 32.0 °F 66% 30.04 in 10.0 mi East 6.9 mph - N/A   Clear
6:15 PM 41.0 °F 35.2 °F 32.0 °F 70% 30.05 in 10.0 mi East 9.2 mph - N/A   Clear
6:35 PM 41.0 °F 35.8 °F 32.0 °F 70% 30.06 in 10.0 mi East 8.1 mph - N/A   Clear
6:55 PM 39.2 °F 34.2 °F 30.2 °F 70% 30.06 in 10.0 mi East 6.9 mph - N/A   Clear
7:15 PM 37.4 °F 31.4 °F 30.2 °F 75% 30.07 in 10.0 mi ENE 8.1 mph - N/A   Clear
7:35 PM 37.4 °F 30.8 °F 30.2 °F 75% 30.06 in 10.0 mi East 9.2 mph - N/A   Clear
7:55 PM 35.6 °F 29.2 °F 30.2 °F 81% 30.06 in 10.0 mi East 8.1 mph - N/A   Clear
8:15 PM 35.6 °F 29.9 °F 30.2 °F 81% 30.06 in 10.0 mi East 6.9 mph - N/A   Clear
8:35 PM 35.6 °F 29.2 °F 30.2 °F 81% 30.06 in 10.0 mi East 8.1 mph - N/A   Clear
8:55 PM 33.8 °F 27.0 °F 30.2 °F 87% 30.06 in 10.0 mi East 8.1 mph - N/A   Clear
9:15 PM 33.8 °F 28.6 °F 30.2 °F 87% 30.06 in 10.0 mi East 5.8 mph - N/A   Clear
9:35 PM 33.8 °F 27.7 °F 32.0 °F 93% 30.06 in 10.0 mi East 6.9 mph - N/A   Clear
9:55 PM 32.0 °F 24.8 °F 32.0 °F 100% 30.06 in 10.0 mi East 8.1 mph - N/A   Clear
10:15 PM 32.0 °F 24.8 °F 32.0 °F 100% 30.06 in 10.0 mi ENE 8.1 mph - N/A   Clear
10:35 PM 32.0 °F 24.8 °F 32.0 °F 100% 30.06 in 10.0 mi ENE 8.1 mph - N/A   Clear
10:55 PM 32.0 °F 25.6 °F 32.0 °F 100% 30.06 in 10.0 mi ENE 6.9 mph - N/A   Clear
11:15 PM 32.0 °F 24.8 °F 32.0 °F 100% 30.05 in 10.0 mi ENE 8.1 mph - N/A   Clear
11:35 PM 32.0 °F 24.2 °F 32.0 °F 100% 30.05 in 10.0 mi East 9.2 mph - N/A   Clear
11:55 PM 32.0 °F 24.2 °F 32.0 °F 100% 30.04 in 10.0 mi East 9.2 mph - N/A   Clear